This is the latest recevied weather packets stored in our database for station/object KC1OEK-13. If no packets are shown the sender has not sent any weather packets the latest 10 day(s).
| Time | Temp. | Humidity | Pressure | Rain* | Wind** | Luminosity | Snow |
|---|---|---|---|---|---|---|---|
| 1777664024 | 16.67° C | 39% | 1011.7 hPa | 0 mm | - | 613 W/m² | - |
| 1777663721 | 17.22° C | 39% | 1011.6 hPa | 0 mm | - | 643 W/m² | - |
| 1777663418 | 16.67° C | 34% | 1011.7 hPa | 0 mm | - | 692 W/m² | - |
| 1777663115 | 16.67° C | 35% | 1011.7 hPa | 0 mm | - | 725 W/m² | - |
| 1777662812 | 16.67° C | 37% | 1011.8 hPa | 0 mm | - | 744 W/m² | - |
| 1777662509 | 17.78° C | 36% | 1011.9 hPa | 0 mm | - | 686 W/m² | - |
| 1777662205 | 16.67° C | 36% | 1012 hPa | 0 mm | - | 662 W/m² | - |
| 1777661900 | 16.67° C | 37% | 1011.9 hPa | 0 mm | - | 655 W/m² | - |
| 1777661596 | 16.67° C | 36% | 1012.1 hPa | 0 mm | - | 669 W/m² | - |
| 1777661292 | 16.67° C | 39% | 1011.9 hPa | 0 mm | - | 393 W/m² | - |
| 1777660988 | 15° C | 38% | 1012.2 hPa | 0 mm | - | 598 W/m² | - |
| 1777660684 | 15.56° C | 37% | 1012.5 hPa | 0 mm | - | 191 W/m² | - |
| 1777660381 | 15.56° C | 39% | 1012.1 hPa | 0 mm | - | 771 W/m² | - |
| 1777660072 | 15.56° C | 39% | 1012.3 hPa | 0 mm | - | 758 W/m² | - |
| 1777659769 | 15° C | 38% | 1012.3 hPa | 0 mm | - | 805 W/m² | - |
| 1777659465 | 15.56° C | 40% | 1012.2 hPa | 0 mm | - | 839 W/m² | - |
| 1777659163 | 15.56° C | 37% | 1012.3 hPa | 0 mm | - | 806 W/m² | - |
| 1777658861 | 15.56° C | 38% | 1012.4 hPa | 0 mm | - | 774 W/m² | - |
| 1777658556 | 15.56° C | 40% | 1012.5 hPa | 0 mm | - | 825 W/m² | - |
| 1777658253 | 15° C | 39% | 1012.3 hPa | 0 mm | - | 197 W/m² | - |
| 1777657951 | 15° C | 38% | 1012.4 hPa | 0 mm | - | 821 W/m² | - |
| 1777657647 | 15° C | 39% | 1012.3 hPa | 0 mm | - | 216 W/m² | - |
| 1777657344 | 15.56° C | 41% | 1012.4 hPa | 0 mm | - | 748 W/m² | - |
| 1777657042 | 15° C | 38% | 1012.5 hPa | 0 mm | - | 847 W/m² | - |
| 1777656739 | 15° C | 42% | 1012.4 hPa | 0 mm | - | 806 W/m² | - |
* Rain latest hour (hover to see other rain measurements)
** Current wind speed in m/s (hover to see current wind gust speed)